Location: Colebrook
(42.0017°N, 73.0973°W)
Time: 21:31:38
(UTC-04:00)

N. Korean satellite - Pass Details

Date: 30 September 2021
Orbit: 450 x 495 km, 97.3° (Epoch: 22 October)

Event Time Altitude Azimuth Distance (km) Brightness Sun altitude
Rises 05:02:59 0° 35° (NE) 2,549 11.0 -20.3°
Reaches altitude 10° 05:06:13 10° 67° (ENE) 1,673 10.5 -19.7°
Maximum altitude 05:07:41 12° 91° (E) 1,548 10.2 -19.4°
Drops below altitude 10° 05:09:09 10° 116° (ESE) 1,676 10.0 -19.1°
Sets 05:12:22 0° 148° (SSE) 2,558 10.5 -18.6°
